SL-14 DEB, 45281

Orbit data source: Space-Track

SL-14 DEB, 45281 is space debris in LEO originally from a launch on Thu, 15 Aug 1991 UTC launched from the Plesetsk Missile And Space Complex (PKMTR). Debris objects in space refer to the collection of defunct objects orbiting the Earth. Examples of debris include non-operational satellites, rocket bodies, and fragments generated from explosions, collisions, or faulty payload assembly.

Loading next visibility...
Identifier
45281, 1991-056T
Orbit
LEO
Country
Flag of CISCIS
Related business
Manufacturer
Unknown
Mission
Spacecraft
Bus & Motor
Unknown
Mass
Unknown
Launch date (UTC)
1991-08-15 (35 years ago)
Launch vehicle
Unknown
Launch site
Plesetsk Missile And Space Complex (PKMTR)
Object type
Payload
Rocket body
Debris
Shape & HBR
Unknown shape, 0.1 m
Radar Cross Section
Medium (>0.1 m² and <1 m²)

Expand to show TLE details & history
Last TLE update: 6 days ago

TLE from 6 days ago
0 SL-14 DEB
1 45281U 91056T   26154.64711020  .00007153  00000-0  61671-2 0  9999
2 45281  82.5659  22.0768 0154013 349.0498  10.7319 13.81122380313011
Epoch: 2026-06-03T15:31Z
TLE epoch observation values (Epoch: 2026-06-03T15:31:50.321Z)
Latitude
Longitude
-102.9856°
Altitude
851.809 km
Speed
7.483 km/s
True Right ascension
01h 28m 18s
True Declination
0° 00' 00"
Sunlit
Object was in daylight at epoch
Visualization orbit readout
Latitude
Unknown
Longitude
Unknown
Altitude
Unknown
Speed
Unknown
Apparent Right ascension
Unknown
Apparent Declination
Unknown
Sunlit
N/A
Visualization observer readout
Local Sidereal Time
06:09:25
Azimuth
Unknown
Elevation
Unknown
Doppler factor
Unknown
Orbital elements
Apogee altitude
1,070.034 km
Perigee altitude
844.091 km
Semi-major axis
7,335.2 km
Eccentricity
0.0154
Inclination
82.5659°
RAAN
22.0768°
Arg. of periapsis
349.0498°
True anomaly
11.06687°
Mean anomaly
10.7319°
Eccentric anomaly
10.89874°
Mean motion
3.45482 °/min
Orbital period
104.2 mins
BSTAR
0.0061671
Loading maneuver chart data...
Computing Atmospheric mass density...
Loading historical data...
Loading historical data...
Loading historical data...
Loading historical data...
Loading historical data...
Loading historical data...
Loading historical data...

Documentation

Showing up to 5 results
|